Wind_Speed
2 2 6 9 7 4 1 2 4 1 2 5 2 7 12 16 13 14 15 16 17 18 18 17 24 28 33 33 33 36 35 37 34 32 29 28 28 28 27 22 23 23 23 27
5 4 7 4 4 3 6 4 2 3 3 4 1 6 4 5 15 19 18 17 17 12 10 14 21 25 32 36 39 38 38 36 36 35 32 29 29 29 27 25 20 18 21 23
5 7 2 4 3 6 1 6 2 0 3 6 6 5 3 3 2 8 15 20 16 18 15 13 16 25 28 31 35 34 35 34 35 34 30 29 23 23 21 23 22 20 20 20
5 6 4 2 2 5 1 4 4 3 4 4 3 4 3 4 2 3 8 14 15 13 9 10 11 16 25 34 33 29 29 30 31 31 29 28 26 23 26 27 26 26 25 25
6 4 2 3 3 5 5 1 3 3 4 2 1 5 5 4 4 5 6 10 8 9 11 9 14 23 30 28 33 27 26 27 29 30 29 29 30 30 26 24 23 24 24 26
7 4 4 7 3 2 3 3 7 5 3 3 4 4 4 7 11 4 3 8 10 8 8 7 14 19 20 23 24 24 26 27 28 28 30 29 31 32 31 29 28 28 29 30
4 3 3 4 2 4 7 7 4 5 5 5 2 2 7 15 6 9 11 8 8 9 9 9 9 15 21 24 25 28 26 25 27 27 27 30 32 32 32 31 30 31 33 33
3 6 1 2 6 6 3 6 5 3 2 5 5 3 5 3 9 8 10 9 8 7 7 10 13 20 25 29 29 26 28 28 27 26 26 26 26 30 31 32 32 31 30 30
5 4 2 1 4 6 3 2 3 7 3 2 4 5 4 6 10 10 8 10 11 8 8 9 10 20 24 24 23 21 19 21 21 23 22 21 21 20 21 22 22 23 26 27
7 2 2 1 5 5 5 6 3 4 2 3 4 3 4 2 3 5 8 10 9 8 7 5 7 12 15 17 15 14 13 15 16 16 18 20 21 22 22 22 24 28 28 26
5 4 5 2 2 5 2 2 6 6 4 5 1 5 5 9 9 14 9 9 8 6 6 6 5 9 10 10 8 7 7 6 6 7 10 13 16 17 18 18 20 23 26 27
6 6 4 3 4 2 4 2 4 5 4 1 3 5 2 6 7 6 8 7 6 6 7 7 10 14 12 10 7 5 3 3 3 7 11 13 15 17 19 21 23 26 28 31
8 0 4 5 6 5 8 3 5 5 3 5 6 6 4 3 8 6 10 8 8 8 6 6 7 9 9 7 5 3 4 10 14 17 20 21 23 23 23 24 27 30 28 28
9 4 6 7 6 4 5 3 5 5 3 2 5 2 3 3 6 6 6 6 7 7 7 6 5 7 8 5 2 4 7 10 14 18 22 25 28 30 26 26 26 24 24 26
5 5 3 3 4 3 3 3 3 4 4 4 3 6 5 9 10 8 7 7 9 8 8 7 6 4 4 4 5 5 9 12 16 20 24 29 32 29 26 28 26 24 22 23
4 1 2 3 4 6 4 3 4 1 3 4 4 6 6 5 7 5 7 8 8 7 6 6 6 7 7 8 9 10 11 14 19 24 31 33 31 27 28 27 24 22 24 24
4 5 3 4 2 5 3 5 4 1 1 4 5 8 4 4 8 8 7 5 6 6 6 7 8 11 13 14 15 14 11 16 22 28 32 35 31 30 27 21 19 22 24 23
6 5 3 4 1 2 6 2 5 8 2 3 4 3 5 5 5 7 6 6 6 6 7 7 10 14 16 17 14 12 14 21 26 29 32 33 32 28 20 20 21 22 23 24
5 5 3 4 4 3 3 5 6 5 1 2 6 6 6 6 6 4 2 4 3 3 7 11 13 16 17 18 16 15 18 24 27 31 29 28 25 19 18 19 20 21 24 25
7 7 5 3 4 7 8 5 5 5 1 5 5 6 7 4 3 4 3 1 1 4 6 9 12 15 18 22 17 15 22 27 29 32 29 24 15 16 18 19 20 21 25 25
3 3 5 3 3 6 7 6 5 6 7 7 7 7 7 5 5 4 3 2 5 7 9 12 15 20 25 24 17 18 23 26 31 26 20 15 15 16 18 20 19 21 25 23
5 5 4 3 3 6 3 2 6 5 4 6 4 4 5 5 5 6 7 6 7 10 13 16 18 20 20 19 15 18 23 28 22 15 17 17 16 17 18 18 19 21 23 19
1 4 3 5 4 4 4 3 1 3 6 4 6 3 5 4 2 1 3 6 8 13 19 25 25 26 25 17 15 18 25 21 16 16 17 16 17 17 17 16 19 21 21 17
5 2 4 3 5 3 5 4 4 4 6 5 5 5 6 5 4 1 3 5 7 16 20 25 23 20 24 23 17 19 21 17 15 17 20 20 20 22 22 19 18 18 18 24
3 3 2 3 2 1 6 5 4 4 6 5 5 3 3 4 1 1 3 5 10 13 19 22 21 20 18 19 18 21 19 18 19 20 20 19 20 22 23 21 17 15 17 27
1 3 3 4 3 4 1 4 4 6 5 5 5 2 1 1 2 2 5 7 9 13 16 21 23 20 24 18 21 24 23 20 18 18 17 17 17 18 17 16 18 10 24 26
Wind_Direction
323 81 228 215 209 214 3 269 298 163 84 82 224 114 157 186 182 181 181 184 193 203 206 199 193 192 198 203 206 212 212 216 215 215 220 225 230 232 233 241 242 246 245 245
20 248 247 253 202 178 225 216 293 280 77 100 90 68 59 147 198 191 183 188 198 188 181 189 195 185 194 199 210 211 217 218 218 221 222 220 229 235 238 236 237 242 245 249
171 243 331 155 258 157 340 96 27 114 39 28 91 8 343 355 108 173 193 190 190 188 180 182 177 191 193 199 209 213 217 220 220 220 225 226 236 234 233 240 244 244 251 254
228 271 266 181 120 109 118 197 172 119 63 181 90 213 271 316 313 90 149 175 186 187 180 172 160 181 196 209 215 217 218 223 224 223 227 230 232 240 249 254 257 259 261 259
258 294 181 163 194 153 208 77 35 99 124 112 333 91 262 90 249 199 140 140 145 159 167 162 170 186 204 208 216 216 222 228 229 229 233 235 242 253 262 266 267 267 267 267
237 281 180 196 161 80 91 48 44 53 70 37 272 128 255 193 192 166 155 136 136 138 142 149 174 186 196 204 211 219 225 228 227 233 239 245 250 256 261 266 267 270 271 269
331 239 283 148 110 22 71 50 3 12 9 222 350 96 226 217 185 176 155 152 143 141 136 147 151 159 176 191 201 211 213 219 224 232 239 242 250 256 262 268 272 275 278 278
139 329 331 193 156 171 60 134 143 190 227 276 342 318 270 230 138 141 169 150 139 146 155 154 162 170 182 192 202 206 212 221 225 231 239 248 256 260 266 271 274 274 278 284
150 272 315 124 121 114 181 69 159 103 19 43 290 311 356 44 130 150 157 149 162 162 171 164 171 178 184 190 194 200 207 220 226 232 242 249 253 257 263 273 283 288 287 286
201 86 343 155 90 43 110 150 51 15 158 262 311 277 235 264 161 140 154 169 171 182 164 152 170 182 191 196 198 209 221 230 242 251 257 262 267 270 272 275 276 279 281 288
125 109 277 40 79 171 41 74 55 112 123 158 214 274 224 189 191 187 185 179 174 151 165 171 158 176 176 177 173 175 190 217 242 260 274 279 283 283 285 284 289 291 290 287
192 131 145 199 328 304 87 104 122 124 219 126 149 270 356 223 207 167 163 141 122 146 143 141 137 144 142 143 156 165 180 243 274 301 292 283 278 280 284 286 295 300 295 291
183 20 86 8 349 358 81 32 113 119 83 189 140 261 349 39 142 165 144 149 150 143 124 113 122 132 141 146 147 128 7 344 322 305 300 296 291 287 286 291 298 297 295 291
93 96 150 177 189 146 101 64 73 89 95 179 224 272 319 334 162 167 169 141 128 142 148 143 139 153 154 144 51 350 322 307 297 293 291 287 288 285 285 292 294 290 291 292
92 113 101 103 111 94 95 111 138 144 178 153 250 207 228 214 198 181 149 147 149 156 160 168 164 173 177 220 252 274 284 297 302 299 296 290 288 281 285 289 288 289 289 292
15 114 96 52 47 105 117 137 122 75 158 257 261 270 224 257 118 127 160 152 156 168 173 178 182 201 225 250 270 276 285 290 302 303 299 294 288 279 287 287 285 287 289 290
79 120 87 190 319 114 2 169 129 155 327 233 207 240 159 119 141 164 176 159 159 162 178 199 211 215 229 244 250 261 280 298 303 302 299 294 286 284 285 279 285 292 295 295
121 98 96 158 96 151 237 254 148 121 53 125 73 45 55 83 71 93 115 137 173 201 219 231 231 235 244 258 255 265 286 298 303 304 304 301 292 283 272 282 289 294 296 295
83 113 89 137 165 276 324 193 160 169 227 295 113 99 107 109 77 19 187 188 224 256 250 246 257 259 256 265 267 274 289 299 307 301 302 300 294 267 277 285 290 295 301 299
64 69 113 136 153 207 226 224 157 108 259 212 146 142 145 78 105 251 250 314 330 286 267 264 265 259 264 263 265 281 292 301 300 303 303 295 272 265 276 284 292 296 305 305
48 30 151 150 202 284 248 227 134 128 234 171 165 162 145 154 193 216 201 248 271 269 271 284 287 277 271 272 273 277 289 295 306 304 295 276 272 282 288 291 293 303 305 307
160 146 200 95 144 264 348 68 171 202 61 122 114 132 140 169 185 210 214 220 248 267 285 298 289 285 290 269 271 283 294 308 303 294 287 286 288 292 295 297 299 308 310 308
41 178 186 160 213 269 307 105 135 126 122 128 122 144 120 140 188 166 311 326 310 305 306 308 299 294 294 289 288 294 303 306 296 290 287 294 301 304 307 299 303 316 319 323
333 115 92 97 338 12 353 30 74 108 124 137 152 157 149 152 168 152 349 315 310 313 314 316 314 308 307 300 296 299 300 296 289 285 296 303 307 307 304 305 300 321 330 328
234 23 62 43 271 216 36 21 339 92 82 95 80 87 122 118 102 309 316 315 316 322 332 333 314 301 316 312 308 305 298 286 280 288 296 307 308 307 306 307 302 320 297 305
312 180 128 206 224 133 289 313 12 58 51 93 115 95 66 156 254 309 295 312 332 330 330 329 325 335 341 331 321 314 305 286 279 285 298 310 314 315 315 318 313 298 303 304
Height
761 781 791 778 775 771 775 778 771 757 746 761 766 772 771 765 770 774 775 777 778 778 778 786 790 793 798 802 804 806 808 810 815 817 820 822 823 825 827 828 829 831 832 833
777 787 759 757 763 772 777 776 775 762 750 761 772 778 769 770 768 765 768 773 773 777 780 783 787 792 795 799 800 803 804 807 812 814 816 819 819 820 823 826 827 828 829 830
782 763 748 758 758 769 770 776 772 772 764 765 776 792 781 771 768 766 764 761 766 769 776 781 786 789 792 796 798 801 804 807 811 813 816 819 820 822 823 823 823 823 825 826
772 752 752 755 760 765 780 758 763 769 784 805 778 832 792 786 778 772 769 766 766 770 774 779 786 790 792 793 797 802 805 808 810 812 815 817 818 818 819 819 820 820 820 821
771 757 755 761 756 754 767 751 763 766 789 791 790 818 806 788 789 780 774 769 770 770 773 778 782 786 788 794 796 800 804 807 810 812 813 815 815 815 815 817 815 816 816 816
761 740 745 748 743 744 750 760 781 792 803 824 798 807 813 798 779 780 773 771 771 773 775 778 781 785 789 794 798 800 802 804 806 809 810 811 810 810 810 812 811 810 810 810
764 754 740 735 753 752 763 795 832 826 837 830 803 802 800 771 768 765 772 773 775 774 776 779 782 786 789 792 794 796 799 800 802 804 805 805 806 807 807 806 805 805 804 804
791 792 751 738 751 767 773 789 830 834 844 829 800 811 791 766 763 767 767 769 775 778 777 778 780 784 787 789 790 793 795 797 799 800 801 802 802 802 802 801 799 799 798 797
792 779 743 738 738 750 774 795 787 825 832 835 823 792 771 769 770 771 775 774 776 776 777 777 780 782 784 787 789 793 796 798 799 800 801 800 799 798 797 797 796 794 793 792
763 785 753 742 740 751 759 772 805 824 830 831 828 810 810 783 781 777 778 777 776 774 776 779 781 783 785 788 792 795 796 797 798 798 798 798 797 796 794 793 792 790 789 787
758 774 774 756 767 776 776 787 807 816 831 844 847 824 784 780 778 774 774 772 774 776 778 780 782 785 787 790 792 794 796 797 797 797 797 795 794 791 790 788 787 786 784 782
750 778 796 776 761 758 765 780 795 820 820 835 834 820 773 769 771 772 773 774 775 776 780 782 782 785 789 791 793 796 796 797 795 794 793 791 790 788 786 783 782 780 777 775
748 784 808 796 783 768 778 776 793 806 815 829 834 821 770 771 771 771 774 776 777 779 781 783 786 787 789 791 792 793 792 791 790 790 788 786 784 782 779 777 775 773 770 768
741 784 785 805 790 781 786 779 785 799 822 822 821 796 777 776 778 778 777 778 782 784 785 787 788 788 789 788 787 787 789 790 789 787 784 780 778 775 773 771 768 766 763 761
746 779 776 779 774 772 777 782 782 787 793 805 797 798 782 779 778 777 778 781 783 785 786 787 787 787 786 786 787 788 788 787 786 783 780 776 771 768 766 763 761 759 756 753
758 785 774 789 779 775 784 779 781 783 784 786 789 791 774 771 774 779 780 781 783 785 786 786 785 785 785 786 786 785 782 781 780 777 773 768 764 762 759 757 755 753 750 747
767 783 796 803 789 785 801 784 782 782 783 785 796 782 771 775 776 779 781 782 785 786 786 786 785 784 783 782 779 778 777 775 772 770 765 761 758 755 753 751 749 746 744 741
773 788 801 810 798 816 787 771 770 782 783 781 781 779 777 779 783 782 783 785 786 786 785 784 783 782 779 777 775 773 771 769 766 762 758 755 751 748 747 746 743 740 738 735
758 782 804 811 814 799 778 770 775 778 789 778 782 780 781 780 781 785 780 781 782 783 782 781 780 778 775 771 768 768 767 764 760 755 751 747 745 744 743 740 738 735 732 729
769 776 788 810 808 814 787 761 755 767 804 776 776 780 781 783 803 797 781 780 780 779 777 775 774 772 770 767 766 764 761 758 754 750 745 742 739 738 736 735 732 730 729 723
787 791 794 808 805 797 769 758 756 794 797 772 774 776 782 789 788 781 778 779 778 777 776 775 772 769 766 763 761 759 757 751 749 744 742 738 736 734 732 730 728 727 723 718
781 794 800 808 804 801 759 756 774 772 768 771 775 777 779 779 778 779 779 779 778 778 776 774 770 766 762 759 758 755 752 747 743 740 739 736 733 731 729 727 725 722 718 713
780 778 786 788 792 775 767 763 763 763 768 772 774 774 776 777 777 776 777 777 776 773 769 765 762 757 754 753 752 750 746 743 740 738 736 733 730 726 726 724 721 718 714 708
771 769 781 781 780 774 771 765 764 764 767 769 770 771 773 776 777 777 779 777 775 772 769 764 759 755 753 749 747 746 743 740 738 736 733 730 726 723 722 721 718 714 708 706
776 771 782 785 777 774 773 774 770 767 768 770 773 775 776 777 778 778 777 775 773 770 767 763 759 755 747 747 743 742 740 737 735 733 730 726 724 721 718 716 713 709 706 707
775 776 785 788 776 779 780 777 773 772 775 774 776 777 777 777 777 777 777 774 772 768 766 761 757 752 746 744 742 738 735 733 730 728 725 724 722 718 715 711 708 706 704 700